{"data":{"norad_id":41471,"intl_designator":"2016-028A","name":"JCSAT-2B","alt_names":[],"object_type":"PAYLOAD","status":"ACTIVE","operator":null,"country":"JPN","launch_date":"2016-05-06","launch_site_code":"AFETR","launch_vehicle":null,"mission":null,"orbit_class":"UNKNOWN","rcs_meters":9.8591,"size_class":null,"mass_kg":null,"dimensions":null,"purposes":["comms"],"wikipedia_slug":null,"has_3d_model":false,"image_url":null,"decayed_at":null,"tle_current":{"epoch":"2026-05-25T04:54:38.767104Z","epoch_age_seconds":60537,"freshness":"FRESH","line1":"1 41471U 16028A   26145.20461536 -.00000168  00000+0  00000+0 0  9993","line2":"2 41471   0.0178 317.9486 0001072 106.9075  45.6001  1.00270140 36900","mean_motion":1.0027014,"eccentricity":0.0001072,"inclination_deg":0.0178,"raan_deg":317.9486,"arg_perigee_deg":106.9075,"mean_anomaly_deg":45.6001,"bstar":0,"rev_number":3690,"period_min":1436.1204641781,"perigee_km":35782.536012008,"apogee_km":35791.576229413,"semimajor_km":42165.193120711,"source":"CELESTRAK","updated_at":"2026-05-25T13:38:14.001833Z"}}}